Showing default

HORIZONS 3E, 43633

Orbit data source: Space-Track

HORIZONS 3E, 43633 is a payload satellite owned by Horizons (US) in GEO that was launched on Tue, 25 Sep 2018 UTC via an ARIANE 5ECA launch vehicle from the French Guiana (FRGUI). Payload-class satellites include a variety of spacecraft equipped with specific instruments for various scientific and technological missions. These include communications satellites like Starlink; space stations such as the ISS; scientific satellites like the Hubble; Earth observation satellites from companies like Planet Labs, Umbra, and HawkEye 360; GPS; miniature CubeSats for education and research; and military/defense satellites.

Not visible in the next 10 days
Identifier
43633, 2018-074B
Orbit
GEO
Country
Flag of USUS / ITSO
Related business
Manufacturer
Boeing/ES
Mission
Operational Commercial Communications
Bus & Motor
BSS-702MP, R-4D?
Mass
6,441 kg wet, ~3,000 kg dry
Launch date (UTC)
2018-09-25 (7 years ago)
Launch vehicle
ARIANE 5ECA
Launch site
French Guiana (FRGUI)
Object type
Payload
Rocket body
Debris
Shape & HBR
Box + 2 Pan, 17.5 m
Radar Cross Section
56.564 m², Large (>1 m²)

Expand to show TLE details & history
Last TLE update: 19 hours ago

TLE from 19 hours ago
0 HORIZONS 3E
1 43633U 18074B   26071.81919902 -.00000030  00000-0  00000-0 0  9998
2 43633   0.0110 351.5836 0000571  10.8533 271.9039  1.00272284 27373
Epoch: 2026-03-12T19:39Z
TLE epoch observation values (Epoch: 2026-03-12T19:39:38.795Z)
Latitude
-0.00706°
Longitude
168.9776°
Altitude
35,785.86 km
Speed
3.075 km/s
True Right ascension
18h 17m 24s
True Declination
0° 00' 25"
Sunlit
Object was in daylight at epoch
Visualization orbit readout
Latitude
Unknown
Longitude
Unknown
Altitude
Unknown
Speed
Unknown
Apparent Right ascension
Unknown
Apparent Declination
Unknown
Sunlit
N/A
Visualization observer readout
Local Sidereal Time
18:37:54
Azimuth
Unknown
Elevation
Unknown
Doppler factor
Unknown
Orbital elements
Apogee altitude
35,789.933 km
Perigee altitude
35,785.118 km
Semi-major axis
42,165.662 km
Eccentricity
0.00006
Inclination
0.011°
RAAN
351.5836°
Arg. of periapsis
10.8533°
True anomaly
271.89736°
Mean anomaly
271.9039°
Eccentric anomaly
271.90063°
Mean motion
0.25067 °/min
Orbital period
1,436.14 mins
BSTAR
0
Loading maneuver chart data...
Computing Atmospheric mass density...
Loading historical data...
Loading historical data...
Loading historical data...
Loading historical data...
Loading historical data...
Loading historical data...
Loading historical data...
Other satellites on launch #74 in the year 2018 (2018-09-25 UTC)

Documentation

Showing up to 5 results
|